User: anonymous   Login
Location: Unspecified
(0.0000°N, 0.0000°E)
Time: 13:20:41
(UTC+00:00)
Language:

USA 78 - Orbit

View from above orbital plane
View from above orbital plane
View from above satellite
View from above satellite

Ground track
Ground track

The orbit data is extracted from the following two-line orbital elements,

1 21873U 92006A   21015.70655948 -.00000193  00000-0  00000-0 0  9995
2 21873  14.1534  17.4851 0007680 324.2086 207.0453  0.99043244  5598
Epoch (UTC): 15 January 2021 16:57:26
Eccentricity: 0.0007680
inclination: 14.1534°
perigee height: 36101 km
apogee height: 36167 km
right ascension of ascending node: 17.4851°
argument of perigee: 324.2086°
revolutions per day: 0.99043244
mean anomaly at epoch: 207.0453°
orbit number at epoch: 559

The dashed part of the orbit path shows where the satellite is in the earth's shadow,  

DLR